sat.trackr.live / text

‹ back to catalog

STARLINK-35937

NORAD 66517 · 2025-265B

PAYLOAD ACTIVE UNKNOWN

§ Identity

Operator
Country
US
Launch date
2025-11-19
Launch site
AFETR
Launch vehicle
Mass (kg)
RCS (m²)

Purposes: comms

External: N2YO · Heavens-Above · Gunter

§ Orbital elements

Epoch: 2026-09-20T10:38:18.109824Z

Period
94.27 min
Inclination
43.0038°
Eccentricity
0.0001714
Mean motion
15.27582412 rev/d
Perigee alt
481.9 km
Apogee alt
484.2 km
Semi-major
6,861.2 km
B*
2.3066e-4
RAAN
258.4923°
Arg perigee
275.2498°
Mean anomaly
84.8158°
Rev number
4,689

§ Raw data

STARLINK-359371 66517U 25265B   26263.44326516  .00006091  00000+0  23066-3 0  99902 66517  43.0038 258.4923 0001714 275.2498  84.8158 15.27582412 46896

JSON: /api/v1/satellites/66517 · /tle

For live sub-satellite position, see the globe view (requires WebGL).

§ Visibility from observer

Set your observer location to see the next 7 days of passes ≥ 10°. The values pass through the URL so the page stays shareable.

No JS? Fill the form by hand. The geolocation button needs JavaScript.